Theta_e
317 317 317 316 316 317 317 317 318 318 318 318 318 319 319 319 320 320 320 320 320 320 321 320 321 321 321 321 322 322 321 318 319 319 319 323 331 345 357 356 350 352 364 344 348 341 338 339 339 344 342 340 337 332 337 338 341 343 329 319 316 317 318 322 319 320 319 312 314 317 321 321 320 328 331 335 332 332 332 331 334 337 338 340 341 342 342 345
316 316 316 316 316 316 317 317 317 317 317 318 318 319 319 319 319 319 320 320 320 320 320 320 320 321 321 321 322 322 319 319 317 318 317 328 344 347 359 363 354 353 361 338 341 335 334 334 337 342 339 331 336 330 337 332 338 328 329 320 312 318 320 324 324 324 322 315 316 319 322 321 323 325 327 326 326 329 328 329 331 334 337 340 340 341 342 343
316 316 316 316 316 316 316 316 317 317 318 318 318 319 319 319 319 319 320 320 320 320 319 320 320 320 321 321 321 321 319 319 321 319 324 344 347 349 357 362 357 362 343 335 331 336 333 335 337 338 336 330 330 326 331 333 333 329 323 316 318 325 324 324 325 324 326 326 319 319 321 322 324 323 326 323 323 327 323 324 331 332 333 336 338 339 341 341
316 316 315 315 315 316 316 317 317 317 318 318 318 318 319 319 319 319 319 319 319 319 320 320 320 320 320 321 322 320 318 320 314 319 336 363 355 353 355 359 359 362 341 332 329 329 337 336 337 337 334 327 327 329 325 331 327 329 322 318 321 325 320 323 326 327 327 327 321 320 320 319 321 320 322 322 320 322 324 329 332 332 334 335 337 339 340 340
315 315 315 315 315 316 317 317 317 317 317 317 318 318 318 318 319 318 318 318 319 319 319 320 320 320 320 321 320 320 318 306 312 325 327 357 355 352 354 356 361 350 338 331 329 327 329 332 333 335 333 324 325 324 323 332 332 328 323 324 325 323 319 324 326 328 326 328 324 321 316 315 320 320 321 321 317 317 324 331 336 336 337 336 336 338 339 339
315 315 315 315 316 316 316 316 317 317 317 317 317 318 318 318 318 318 318 318 319 318 319 320 320 320 321 321 320 318 310 295 316 329 360 354 351 351 354 356 361 341 334 330 326 324 323 324 328 327 327 323 321 319 320 331 332 320 324 325 327 326 321 325 326 327 327 327 324 320 320 320 317 313 321 321 319 323 331 336 337 338 339 338 339 339 338 339
314 314 315 315 315 315 315 316 316 316 316 317 317 317 316 317 317 317 317 317 318 318 319 320 320 321 322 322 320 319 314 307 314 327 354 361 357 357 357 361 367 340 330 326 324 323 323 321 323 323 322 321 320 318 320 330 331 325 320 325 326 327 323 325 325 327 326 326 324 324 321 317 316 314 321 318 323 328 334 338 339 339 340 339 338 338 338 339
314 314 314 314 314 315 315 315 315 316 316 317 317 317 317 316 316 316 317 317 317 318 319 320 320 321 323 320 318 313 315 315 319 320 356 357 353 358 357 344 336 333 329 325 324 322 324 321 321 324 319 315 318 318 321 319 325 324 322 325 326 327 325 326 325 326 327 327 326 325 319 315 318 317 320 319 325 332 337 338 339 339 339 338 337 337 338 339
314 314 315 315 315 315 315 315 316 316 316 316 316 316 316 316 316 317 317 317 318 318 319 320 321 323 325 319 314 306 305 314 322 329 344 350 339 349 340 332 331 327 327 327 325 324 323 323 323 324 316 316 320 318 320 317 312 318 320 325 326 325 326 327 324 325 326 328 327 323 322 321 322 323 320 321 328 335 337 337 338 337 337 337 336 337 338 339
314 314 314 314 315 315 315 315 316 315 316 317 316 316 315 316 316 317 317 317 318 319 319 321 322 324 321 318 319 305 313 320 321 327 342 334 336 340 337 329 326 323 322 323 324 323 322 324 323 325 323 319 320 317 319 317 315 320 324 325 324 325 325 325 323 324 325 324 327 324 322 320 324 321 313 321 330 334 335 336 337 336 335 336 336 337 337 338
313 314 314 314 314 315 315 315 316 316 316 316 316 315 315 316 316 316 316 317 318 319 320 322 324 324 319 320 311 302 316 316 327 331 334 333 334 333 331 328 326 322 320 320 321 324 325 325 325 324 321 315 317 315 315 317 320 319 319 324 324 324 323 324 325 325 323 323 326 325 322 323 324 322 314 321 330 333 333 335 335 335 334 334 336 336 337 338
313 314 314 314 314 314 315 315 315 315 316 315 315 315 315 316 315 315 316 317 318 320 321 322 324 322 320 317 314 310 321 321 321 319 328 331 331 332 332 328 325 323 320 317 320 323 325 325 325 320 311 319 311 315 314 318 318 317 317 313 319 322 320 324 323 324 322 320 326 326 323 319 320 317 319 323 331 331 332 333 334 333 333 333 334 335 335 335
313 313 314 314 314 314 315 315 315 316 315 314 314 314 315 315 315 315 316 317 318 320 321 323 324 323 320 313 317 323 321 320 319 320 320 321 323 325 326 325 326 325 324 321 320 324 325 324 322 317 319 314 313 309 317 319 317 318 315 312 311 312 315 323 324 322 321 322 326 325 309 312 318 321 319 321 325 329 330 331 332 331 333 333 333 333 335 335
313 313 314 314 314 315 315 315 315 314 314 314 314 314 314 314 315 316 316 317 320 321 323 325 325 323 319 312 318 321 323 323 322 320 319 322 320 320 324 323 323 322 326 325 324 322 323 322 320 317 318 313 310 318 314 314 317 311 313 312 305 304 304 317 320 321 318 323 324 324 309 312 319 322 321 321 322 327 326 328 330 331 332 331 331 333 334 334
313 314 314 314 314 314 314 315 314 314 314 314 313 313 313 313 315 317 318 319 321 323 325 327 323 320 316 317 327 328 346 332 320 319 321 319 319 319 320 323 321 321 321 322 322 324 325 322 318 313 310 315 314 311 307 308 309 310 306 302 305 303 306 314 321 320 315 321 324 320 309 313 318 321 321 323 322 327 325 327 328 329 331 331 330 332 334 334
313 313 313 313 314 314 314 314 313 313 314 313 312 312 314 314 316 318 320 321 323 325 326 322 321 320 317 313 322 343 336 327 325 327 326 325 321 318 320 320 322 321 320 319 322 322 322 322 316 312 312 312 309 305 303 303 304 307 304 308 303 305 307 310 318 320 320 320 321 318 310 316 317 322 323 324 322 326 326 326 325 327 331 331 330 332 333 333
313 313 313 313 314 314 314 313 313 313 312 312 312 312 314 316 318 320 322 323 323 325 324 319 325 322 309 322 331 319 318 325 330 328 327 324 321 320 319 318 318 319 319 319 319 319 318 316 318 315 313 307 307 306 300 298 299 302 305 302 306 305 307 304 316 318 319 319 315 318 316 317 319 322 323 324 322 323 323 324 324 327 329 330 330 332 332 332
313 312 313 313 314 314 313 313 313 313 311 311 311 311 310 316 321 319 321 319 319 324 324 326 320 314 311 322 315 317 320 320 322 323 323 323 322 320 319 317 317 317 317 314 317 313 316 311 313 306 308 307 306 304 299 296 300 300 302 302 304 307 308 308 310 315 317 318 315 315 316 317 319 321 323 324 323 321 321 323 323 324 327 328 329 331 333 333
313 313 313 313 313 313 313 313 312 311 311 311 311 314 318 321 320 319 320 318 319 317 310 313 312 299 299 314 323 324 324 323 322 322 319 320 321 321 320 320 317 314 310 309 310 312 312 309 310 305 302 304 304 304 303 305 307 305 306 304 305 303 305 307 314 317 317 315 314 314 312 316 318 319 321 323 324 320 320 322 323 324 326 327 328 331 333 334
314 313 312 313 313 313 313 313 312 311 310 308 307 308 317 315 313 321 319 321 317 316 317 317 317 313 311 312 314 321 326 324 317 318 320 323 320 317 316 318 315 314 310 305 308 309 312 303 301 302 303 306 307 307 307 309 309 309 308 307 306 307 308 313 315 317 318 315 314 314 315 316 317 319 321 322 324 322 320 320 321 323 325 326 326 331 333 334
313 313 313 313 313 313 313 312 311 311 309 307 307 308 306 307 299 299 303 304 309 316 317 315 317 316 313 317 321 322 318 318 318 317 319 325 320 315 311 313 311 306 307 309 308 312 311 302 302 305 307 308 309 309 308 308 310 308 307 307 305 307 307 313 314 318 319 313 311 315 315 316 317 319 321 323 323 321 320 319 320 322 324 325 325 328 332 334
313 313 313 313 313 312 312 311 311 309 309 308 307 309 312 314 309 310 306 298 305 308 307 308 311 309 316 319 322 324 321 315 315 316 321 321 317 310 309 310 307 304 308 309 308 305 302 300 304 307 309 309 309 309 309 308 307 308 307 306 305 306 310 313 315 318 318 316 311 315 313 315 318 319 321 321 323 323 324 323 322 321 323 324 325 326 331 334
313 312 312 312 312 312 311 310 309 308 307 312 307 306 308 311 314 313 309 303 300 306 305 305 304 305 306 311 315 318 312 310 309 315 317 319 313 311 309 306 305 306 308 308 303 302 298 301 306 309 309 308 307 307 308 308 308 306 306 304 303 307 306 303 311 315 317 314 311 314 313 313 318 320 321 322 323 324 325 326 325 324 322 324 325 326 329 333
312 313 312 312 312 311 311 309 308 310 307 306 306 305 308 312 312 312 305 298 297 303 306 307 306 305 305 305 311 311 308 310 311 311 321 317 311 312 309 307 305 306 304 307 306 304 302 306 309 309 308 307 305 306 306 305 304 307 308 306 305 306 308 308 308 313 316 316 317 314 312 313 315 315 317 321 324 324 324 326 326 326 326 327 328 328 329 333
313 312 312 312 311 311 309 308 308 305 307 308 307 312 314 313 313 312 303 299 300 301 310 308 310 308 309 314 313 307 309 310 312 316 318 318 314 311 309 312 307 303 305 307 307 305 305 309 310 308 307 307 305 304 305 305 303 306 309 309 308 309 308 309 311 310 309 308 314 312 304 303 313 315 316 319 321 321 325 322 323 325 326 327 326 327 328 333
312 313 312 312 312 310 308 304 305 306 307 306 309 312 314 313 314 313 303 295 292 302 309 301 311 305 315 307 310 309 310 304 313 315 317 319 321 314 311 306 307 302 306 306 305 306 306 310 309 307 306 305 305 304 305 306 302 302 305 311 310 310 309 308 308 308 304 302 310 315 302 298 312 313 315 318 319 319 322 323 323 324 326 327 327 328 328 330
312 312 313 312 311 309 302 299 305 308 303 305 311 314 314 314 315 312 299 293 292 306 303 310 308 308 313 310 309 310 295 300 313 315 315 319 315 318 307 304 306 308 310 310 304 301 309 309 308 307 306 304 303 301 305 306 303 301 309 311 311 310 308 308 308 307 307 313 313 314 309 302 301 311 317 319 317 318 319 321 323 324 325 327 327 329 329 330
313 313 311 311 310 309 304 305 305 304 306 310 313 313 313 314 314 309 298 290 293 313 303 305 310 314 312 310 311 305 305 311 304 309 315 316 315 312 309 305 304 305 308 306 296 305 307 306 307 306 305 303 301 304 306 307 304 304 310 311 310 310 309 309 308 306 306 308 303 309 312 302 301 309 318 318 315 316 317 320 322 323 325 326 328 329 330 331
312 312 312 311 310 308 308 306 306 305 310 313 312 311 313 313 308 300 294 288 305 305 317 306 318 312 310 310 307 307 307 310 304 309 314 315 315 311 304 306 307 307 309 307 301 305 308 308 308 308 306 302 305 306 307 307 303 307 311 312 311 311 311 310 307 305 305 303 300 306 310 300 300 309 314 317 315 315 317 320 323 324 326 325 327 329 331 332
312 312 312 310 308 307 307 307 303 307 309 310 310 313 311 308 301 293 290 285 306 299 309 309 308 306 309 304 304 306 304 307 310 311 312 309 311 312 310 313 307 306 305 308 306 307 309 313 314 309 306 307 307 307 308 307 307 309 310 308 308 308 307 308 307 303 303 297 301 309 311 307 298 307 312 312 314 317 319 320 322 324 326 326 327 327 330 332
312 310 310 310 304 306 305 302 306 310 310 310 314 312 305 303 294 291 286 296 306 306 312 307 305 310 305 303 300 305 305 306 307 308 305 310 307 309 308 305 309 304 302 303 304 307 308 309 308 310 313 311 310 307 309 309 309 307 305 304 303 302 305 302 305 303 296 294 301 309 310 310 300 303 312 317 320 321 321 320 321 323 324 327 327 328 328 332
309 309 310 307 307 309 302 301 307 310 309 312 312 307 299 290 294 286 290 308 296 303 305 304 309 307 305 306 304 303 302 305 307 306 304 303 302 302 302 299 301 295 295 297 298 305 304 305 308 310 315 310 307 305 304 308 307 305 303 302 298 294 297 294 296 294 292 293 301 306 307 304 304 308 314 317 319 321 322 323 323 324 324 326 328 328 329 330
308 307 307 309 311 308 308 309 310 311 312 312 310 305 294 289 284 290 292 300 298 309 304 311 308 308 307 305 303 305 306 301 307 306 307 305 303 303 305 304 305 301 293 299 298 299 301 307 308 308 309 313 310 301 299 299 303 302 300 298 295 292 291 288 290 295 295 301 306 305 307 301 305 308 316 317 319 322 323 324 325 325 325 326 328 329 329 331
307 307 306 309 310 311 313 314 313 314 312 312 305 299 293 286 287 302 295 297 299 306 306 305 307 307 308 303 304 307 301 306 306 305 307 303 303 299 302 304 306 303 302 300 297 298 293 295 303 306 302 310 309 307 303 301 301 303 304 301 298 297 295 290 292 290 292 294 301 307 301 297 299 300 317 319 321 322 324 325 325 326 327 328 331 331 330 332
307 307 309 310 311 313 314 315 315 315 312 307 301 294 286 285 292 294 296 298 301 304 302 307 304 304 303 306 308 308 307 302 307 305 304 304 300 301 300 301 305 306 304 297 301 300 299 299 305 310 309 309 308 310 310 306 302 303 305 304 299 298 302 294 297 296 297 297 297 301 299 304 304 314 318 320 321 321 323 323 324 324 326 327 329 330 330 332
306 307 309 307 309 313 315 315 317 315 309 302 296 290 286 291 290 297 297 305 305 301 300 300 302 301 300 302 307 307 310 305 305 304 303 305 306 303 306 305 304 306 303 298 301 297 300 297 308 309 311 308 308 311 310 310 296 300 302 298 301 306 304 301 303 306 305 298 295 306 305 306 309 312 312 316 317 318 320 321 322 322 324 326 328 330 330 333
304 307 304 308 310 314 315 315 315 314 308 301 294 288 293 294 297 297 301 299 299 300 299 293 296 298 299 298 301 305 307 308 306 303 299 307 304 307 306 307 310 307 308 305 301 305 296 298 307 307 305 309 311 311 311 310 308 302 298 301 309 309 308 302 294 296 295 291 295 301 298 298 302 297 311 311 314 316 318 319 322 322 326 325 327 330 330 333
304 304 306 308 311 316 317 317 315 311 306 299 292 296 299 293 300 298 301 300 300 300 294 293 295 299 296 299 300 303 307 303 303 304 300 305 301 310 308 307 311 309 309 310 303 303 304 295 302 308 308 309 311 310 307 310 310 304 300 308 299 294 295 300 301 291 291 291 293 297 300 300 301 303 307 308 312 314 316 318 320 322 326 326 328 330 330 333
305 304 299 306 311 312 314 318 312 308 302 296 293 292 298 298 301 300 301 301 300 298 294 296 294 298 298 295 298 304 305 301 304 303 299 302 299 308 308 310 308 311 311 310 305 304 305 296 298 307 308 308 308 306 299 302 307 309 309 304 307 302 298 296 298 299 298 291 293 294 298 295 306 304 309 309 312 314 316 316 318 322 326 327 329 330 331 332
301 297 296 307 310 310 311 310 309 305 300 293 295 295 300 298 301 303 303 301 299 297 296 296 298 295 297 298 299 297 302 304 304 303 303 304 303 310 308 312 309 310 311 310 307 308 301 303 293 301 309 308 301 304 301 302 300 301 301 300 301 302 305 302 302 298 295 292 290 291 291 298 305 311 311 311 313 314 316 317 318 320 324 326 328 330 331 333
302 297 297 308 310 309 308 303 300 298 296 298 299 298 300 299 302 303 305 306 303 305 300 299 298 295 297 296 296 299 297 298 300 303 304 304 304 300 310 310 311 309 311 309 307 306 301 300 296 300 301 301 304 308 307 306 305 303 301 300 301 298 295 293 292 302 300 295 289 292 292 301 309 315 316 313 314 316 317 318 319 319 321 323 324 329 330 331
297 291 295 307 308 308 301 293 295 301 298 295 294 298 297 305 300 300 302 304 303 301 305 302 301 300 299 298 298 299 298 297 298 299 305 303 307 306 309 313 312 312 308 304 304 308 306 306 300 297 300 301 306 309 311 310 309 306 305 302 303 300 299 295 287 292 299 299 302 300 295 297 310 314 314 315 317 317 318 320 320 320 320 321 323 329 331 332
295 292 303 306 308 305 298 292 295 295 295 298 302 301 302 300 299 300 299 300 298 301 300 300 300 299 301 300 300 299 299 296 298 297 299 303 307 309 311 311 313 312 311 307 308 308 321 301 297 299 303 306 308 310 310 310 309 306 305 306 303 300 301 298 297 299 296 298 294 294 294 297 310 313 316 319 318 319 319 321 321 321 321 322 321 329 331 332
296 295 297 305 307 304 296 288 289 292 295 299 298 297 299 297 297 296 296 299 298 298 298 298 300 302 299 303 301 298 301 294 300 299 299 302 301 308 311 311 312 310 309 307 304 309 302 302 299 293 294 295 301 304 304 308 307 304 302 304 305 304 303 302 302 305 297 298 298 293 291 295 310 313 315 320 317 319 317 320 322 320 320 321 320 326 332 332
296 298 298 301 306 302 293 295 293 292 293 293 292 291 294 296 299 298 297 297 301 300 299 298 299 300 300 301 299 300 302 300 296 300 301 301 301 307 306 310 312 309 311 315 329 311 305 302 300 292 290 288 289 291 294 297 301 303 305 304 305 304 302 300 295 296 290 298 300 295 294 299 308 312 313 313 316 315 319 318 319 320 320 320 321 323 332 332
292 286 293 295 299 299 298 299 296 293 291 291 290 292 295 294 298 300 300 298 301 301 299 298 301 301 297 297 297 297 297 302 298 298 299 299 301 304 305 304 305 307 321 331 328 313 304 305 302 300 296 294 297 299 312 310 303 300 303 304 304 304 304 302 299 294 291 293 299 297 300 303 306 308 309 311 312 316 317 318 323 327 332 323 323 330 331 331
296 289 290 288 295 295 294 296 294 295 291 294 288 293 291 293 294 295 300 294 299 298 298 298 297 294 293 294 293 295 298 297 301 299 297 297 299 300 304 306 306 311 324 325 325 313 308 301 303 302 301 302 306 305 307 308 304 303 303 303 305 304 304 302 298 296 299 296 287 296 303 302 303 305 310 310 311 314 319 315 315 328 330 332 330 331 338 333
288 292 295 297 289 287 289 290 294 292 294 294 291 294 291 291 292 290 296 298 299 299 294 296 296 296 295 294 294 290 293 295 297 293 297 297 296 299 298 304 304 312 313 314 319 311 308 301 304 304 303 304 305 306 307 307 307 305 305 304 303 305 303 301 300 301 302 296 294 298 306 307 305 307 308 312 317 314 316 316 317 322 330 332 332 331 331 331
295 295 294 298 290 292 292 293 294 293 292 293 291 292 290 290 290 293 293 293 295 294 296 289 292 294 294 296 293 291 294 290 290 295 294 294 295 295 295 297 303 306 305 303 312 314 308 303 308 305 303 304 304 305 305 304 305 305 305 305 305 304 304 304 303 303 302 301 301 302 304 310 312 310 311 312 321 319 320 324 319 317 321 329 332 331 330 331
291 291 290 296 294 292 293 293 293 292 289 294 289 290 291 290 289 292 294 293 290 291 296 291 292 294 295 295 295 291 293 294 293 290 295 294 295 297 295 297 298 303 303 302 303 309 307 305 309 305 303 303 304 305 305 304 303 303 304 305 305 305 304 304 304 304 305 302 304 303 302 302 309 312 311 313 315 321 318 322 319 317 319 329 331 333 330 331
297 299 298 291 288 291 293 292 291 290 288 290 289 291 292 291 290 293 292 296 293 291 293 291 294 293 295 295 294 294 296 295 295 295 296 296 292 297 295 297 301 297 301 301 304 305 307 305 307 306 300 300 305 304 304 304 304 302 303 304 304 304 302 303 302 304 302 301 304 303 300 301 306 313 315 317 319 317 318 323 320 322 320 330 332 333 334 337
302 303 300 295 287 293 289 292 291 290 286 290 291 291 291 291 293 294 289 295 296 296 295 295 295 295 293 294 293 295 298 298 297 298 298 299 300 300 301 302 302 300 300 301 305 303 304 304 301 300 296 298 305 305 304 303 302 299 300 303 305 305 305 305 305 307 306 305 301 299 298 304 306 313 311 311 312 314 314 317 322 327 325 322 331 332 334 338
Wind_Speed
22 22 23 23 23 23 23 23 23 23 23 23 22 22 22 22 22 22 22 21 21 20 21 21 21 21 21 21 21 20 19 9 11 6 8 17 11 12 9 9 14 15 9 5 8 10 11 12 13 14 10 8 7 8 6 9 4 3 1 2 2 4 4 5 9 10 6 5 3 5 2 7 10 13 12 14 14 11 11 10 11 17 13 16 17 19 19 19
23 23 23 23 23 24 24 23 22 22 22 22 22 22 22 22 22 22 23 23 22 21 20 20 21 21 22 21 19 19 14 7 9 12 18 22 16 19 13 10 16 16 10 7 10 12 12 13 14 14 11 9 7 8 9 5 6 3 1 1 4 2 6 5 9 16 7 3 9 6 8 3 11 9 11 9 14 14 12 13 16 15 19 18 18 19 19 20
23 23 23 23 23 23 22 21 21 21 22 22 23 23 22 22 22 23 22 23 23 22 21 20 20 22 21 21 18 17 11 6 7 14 20 18 20 17 14 12 15 16 13 9 10 12 14 14 13 14 10 8 8 10 12 6 8 6 4 4 6 6 7 7 8 11 11 12 4 10 10 5 9 6 7 12 13 15 10 12 17 18 19 19 19 19 19 18
23 23 24 23 22 22 21 21 22 22 22 22 22 23 23 23 22 22 22 23 23 23 22 20 21 20 21 20 16 13 7 7 5 7 3 2 11 17 17 16 15 16 11 9 9 12 12 13 14 14 10 10 8 13 10 9 8 6 5 6 6 11 6 3 5 9 17 16 3 6 8 11 9 5 6 14 12 10 11 13 20 21 21 20 20 19 18 19
23 24 24 22 22 22 23 23 23 23 24 24 22 23 22 22 22 23 23 22 22 22 22 21 22 21 20 17 14 8 6 4 2 1 3 10 17 20 20 18 18 13 13 9 8 11 12 14 14 14 10 8 11 9 12 13 10 6 12 12 9 5 3 7 7 9 14 15 11 6 12 8 7 6 9 14 10 9 12 18 21 21 21 21 20 19 17 19
24 24 23 22 22 23 24 23 23 24 23 22 23 22 23 23 23 23 23 22 22 21 21 20 21 21 20 17 11 6 1 3 1 0 5 10 16 17 17 16 16 11 10 8 8 9 12 13 14 11 10 10 10 12 10 13 14 7 9 11 10 11 6 6 9 11 12 8 4 4 7 10 7 6 11 13 13 12 18 23 24 21 21 20 18 18 18 19
25 24 22 22 23 23 24 24 23 23 23 23 23 22 23 23 23 23 23 22 22 21 21 19 20 20 18 17 5 3 4 10 10 3 10 6 10 12 11 10 9 6 8 8 9 8 10 13 13 12 10 11 13 13 11 8 15 11 10 13 12 12 11 7 11 12 8 6 3 2 11 6 6 6 10 10 12 17 20 24 23 22 20 19 19 18 18 18
25 23 23 23 24 24 25 24 24 24 24 23 23 23 22 23 23 23 22 22 22 22 20 18 19 17 15 9 2 3 5 10 18 13 13 13 9 9 10 7 9 7 8 11 11 12 10 13 14 11 10 9 7 12 10 13 13 13 10 14 13 14 12 10 9 11 15 12 5 3 6 5 8 5 8 1 12 21 24 22 22 22 21 18 18 18 17 16
25 23 23 24 25 25 26 26 25 25 25 24 24 24 23 22 22 21 21 22 22 22 20 17 16 13 10 4 3 6 10 15 17 10 16 11 8 7 9 6 8 10 8 10 10 11 10 11 13 11 8 12 11 12 13 11 9 15 14 17 15 16 15 12 10 10 14 12 9 5 3 5 3 8 3 10 17 22 22 21 22 21 21 19 18 16 16 15
24 24 24 25 25 26 26 26 26 27 27 26 26 26 25 23 21 21 21 22 22 21 19 16 14 11 6 3 4 4 10 8 10 12 12 13 11 11 11 9 12 8 8 9 9 12 13 10 13 10 12 10 9 12 11 12 9 8 11 22 18 16 15 8 7 12 12 9 12 7 8 6 2 6 2 8 20 21 21 20 20 20 19 19 17 15 15 17
24 24 24 25 26 26 26 27 27 28 28 28 29 28 26 24 22 22 22 21 21 21 18 15 10 7 4 4 3 9 7 9 2 8 13 14 15 12 13 9 12 9 10 9 11 12 13 15 11 6 7 6 5 11 9 11 11 14 11 18 19 16 12 10 11 17 8 10 15 10 7 7 5 4 3 15 18 21 21 21 19 18 15 16 18 15 13 14
24 24 24 25 26 26 26 26 27 27 28 29 29 28 27 26 26 23 21 20 20 19 15 10 8 4 5 5 9 13 6 8 8 1 6 11 14 15 14 12 12 10 10 10 10 10 13 14 13 7 4 6 12 8 12 14 13 13 8 2 9 12 9 14 15 14 5 6 15 10 10 7 8 11 8 15 20 20 21 20 19 17 14 15 14 14 11 14
24 24 26 26 26 26 26 27 27 27 28 28 29 28 28 28 27 25 22 20 16 15 13 10 6 4 3 7 13 18 17 15 17 16 10 9 11 9 9 8 8 12 11 9 8 11 12 12 10 9 10 7 3 7 3 8 11 13 9 3 7 10 12 19 14 9 14 9 18 14 7 8 8 8 12 11 16 19 20 18 17 13 15 13 13 13 12 12
27 27 27 28 28 28 28 27 27 28 28 28 28 28 27 27 28 26 22 19 19 15 12 8 4 4 4 10 4 6 14 14 17 17 15 12 12 7 11 8 8 7 6 10 9 6 10 10 9 10 6 8 7 5 13 8 8 10 7 4 4 4 4 8 9 13 14 14 15 16 7 7 8 10 12 12 12 19 17 16 16 14 15 12 12 13 13 13
27 27 27 28 29 28 28 28 28 27 28 29 28 29 29 27 27 25 20 15 12 11 8 6 5 3 4 11 9 22 29 15 13 16 12 11 12 12 8 10 10 8 7 5 4 6 6 6 11 8 7 6 9 11 10 5 6 7 5 7 5 5 7 9 13 11 11 14 16 14 5 8 9 11 14 12 12 18 17 16 16 14 14 13 10 14 13 13
25 27 28 29 28 28 28 28 28 28 29 29 29 31 32 27 24 23 19 14 10 4 4 4 6 6 7 12 8 10 5 6 14 19 14 12 13 11 6 8 7 9 8 6 6 6 6 6 7 7 6 6 9 6 5 4 7 6 6 3 6 7 10 8 17 10 11 12 14 12 5 9 5 6 14 12 13 17 17 17 16 15 17 15 11 13 12 12
25 26 28 29 29 28 29 28 29 29 30 30 31 33 32 26 21 17 13 8 5 5 6 2 5 6 4 3 11 10 7 10 9 10 13 14 11 9 8 7 7 9 9 8 7 6 7 8 3 5 7 7 6 5 4 6 6 8 3 6 8 9 8 7 9 7 6 14 9 10 8 8 5 8 11 13 12 16 17 18 17 15 14 14 11 13 12 12
26 26 28 28 30 29 29 29 28 28 30 32 30 29 26 28 18 6 3 4 4 5 7 7 5 4 13 10 6 13 13 10 7 8 12 11 15 12 9 7 6 9 9 9 9 10 7 7 4 5 4 9 8 9 8 8 10 8 5 6 9 11 9 6 7 8 5 14 10 10 9 11 8 7 10 13 13 13 14 16 17 16 15 15 12 14 14 12
25 27 27 28 29 29 29 30 31 30 28 31 29 27 23 9 2 3 3 4 4 2 1 5 6 7 5 3 12 8 6 8 10 9 9 10 12 8 10 8 8 11 9 8 6 11 6 6 4 6 10 10 12 11 10 10 10 13 13 9 8 8 7 12 8 9 10 11 9 11 8 11 8 9 8 8 14 12 11 14 15 15 15 16 14 14 14 13
25 24 29 28 29 29 29 29 31 31 27 21 17 14 4 2 1 2 2 5 6 8 11 6 12 9 12 17 13 12 13 9 8 10 6 9 9 9 8 9 9 10 8 9 7 14 4 9 11 12 10 9 11 13 12 12 13 13 14 12 8 11 11 13 9 12 13 8 9 11 9 10 11 10 11 8 10 13 11 14 13 14 14 15 14 15 16 16
25 29 29 28 28 29 28 30 31 32 27 13 10 5 6 9 9 6 10 10 13 15 16 19 17 17 17 12 15 15 10 8 5 10 10 10 8 9 7 4 5 8 9 9 10 8 10 10 14 12 11 11 11 13 15 14 14 16 13 12 10 9 10 8 9 15 14 9 7 10 13 10 12 13 12 10 13 14 12 13 13 15 15 15 16 15 17 16
25 26 27 28 30 30 30 31 33 31 28 6 1 3 8 8 3 6 7 12 8 11 14 20 17 20 15 20 20 16 12 12 16 7 8 12 9 8 8 9 8 8 8 9 9 7 12 14 10 12 11 12 13 13 17 16 13 14 13 10 10 11 11 12 7 16 14 13 7 13 11 9 12 11 9 8 14 13 14 14 14 14 15 15 16 15 15 14
27 26 26 27 29 31 31 33 31 34 8 3 6 11 8 11 8 5 5 11 20 12 21 21 19 22 20 16 17 11 15 15 12 10 10 10 7 11 8 11 9 8 9 12 11 8 9 12 13 11 13 13 14 14 12 15 14 11 11 9 9 10 8 4 5 10 13 11 8 11 11 6 8 9 11 6 7 6 12 15 15 16 15 16 17 16 15 17
28 27 26 26 29 31 33 33 33 13 5 12 12 13 13 9 8 9 8 6 12 15 16 19 20 20 21 18 8 16 16 11 11 14 10 10 10 10 7 8 10 10 11 13 15 12 10 4 14 12 12 14 14 14 13 11 12 16 14 10 11 11 11 12 5 4 10 9 9 9 6 4 9 8 8 8 7 5 9 14 14 14 15 16 17 17 17 19
26 26 26 25 26 31 33 34 8 8 15 15 7 10 12 13 8 10 8 6 7 11 11 17 12 11 18 10 5 13 14 11 15 9 7 13 11 6 9 5 5 11 11 12 13 15 14 12 11 18 15 14 14 13 16 12 10 12 17 17 14 10 12 12 10 11 4 6 10 9 3 5 8 12 13 9 8 10 4 8 15 13 14 15 17 17 16 17
26 26 27 24 24 26 33 11 6 14 17 9 8 14 12 12 10 10 5 3 9 7 9 7 10 9 9 12 13 10 6 13 17 13 11 11 11 9 4 8 5 9 13 12 12 7 10 11 13 13 18 16 16 14 13 15 11 9 11 16 19 17 16 16 12 6 4 4 5 8 7 3 7 12 13 11 13 13 10 6 8 13 14 15 16 16 17 16
27 27 25 23 22 21 14 5 10 16 11 7 13 14 13 13 8 13 3 4 6 7 7 5 8 0 7 13 15 11 7 14 11 12 15 11 13 10 9 8 6 7 6 6 4 10 8 14 15 16 14 17 14 14 12 15 13 12 6 13 17 19 20 19 17 10 3 6 8 12 7 5 4 10 14 15 15 14 13 13 8 10 14 16 15 17 17 18
26 26 25 23 22 15 9 10 12 10 11 12 12 13 14 11 10 6 3 4 3 3 5 3 4 2 3 13 17 16 7 10 10 17 19 13 9 12 13 11 11 10 9 6 13 5 10 12 15 17 16 12 14 10 9 14 12 9 10 10 14 18 19 18 14 11 6 6 6 11 12 4 4 5 14 14 11 11 12 12 12 9 11 15 16 17 18 19
25 25 25 24 24 23 14 6 7 11 9 8 14 15 10 10 8 2 2 4 5 3 3 6 3 2 2 17 16 15 10 4 6 12 17 14 15 5 12 15 9 9 13 13 10 5 8 11 12 18 12 12 7 12 14 13 14 10 11 12 11 11 16 16 11 11 11 6 7 11 14 6 4 6 7 15 14 13 13 14 12 11 12 13 14 15 18 16
24 24 24 23 20 8 5 8 13 20 14 14 14 12 13 9 3 2 3 6 5 2 2 3 2 5 7 15 12 15 15 8 8 8 16 14 15 16 6 9 11 10 10 13 15 12 9 9 13 10 14 10 7 10 14 16 14 5 12 13 12 13 9 8 12 6 4 10 4 10 15 12 5 8 12 12 14 17 15 12 12 9 7 11 14 14 15 16
25 25 21 21 8 7 9 9 13 10 6 9 13 13 8 3 3 3 7 4 4 3 2 3 6 9 11 14 11 16 15 10 11 5 10 12 13 15 7 7 9 8 8 9 11 15 15 13 8 7 10 9 10 8 12 13 13 13 8 10 8 8 7 6 2 5 10 9 4 7 12 14 11 5 10 13 13 18 17 15 15 15 13 9 9 13 13 15
27 28 27 15 13 8 6 9 9 9 11 14 13 8 4 2 3 8 5 2 7 6 12 6 9 9 14 13 11 13 14 14 9 8 10 11 11 14 15 11 10 10 11 10 12 9 14 15 11 11 7 12 10 12 8 14 11 12 9 6 10 6 4 7 5 7 7 8 5 9 10 8 12 6 11 13 14 18 19 17 19 18 17 15 13 14 14 12
29 28 35 18 12 7 15 17 13 11 11 13 8 5 3 3 9 12 7 4 3 1 2 5 9 12 10 12 11 10 13 12 11 11 11 14 12 14 16 15 10 11 7 9 9 8 8 11 14 12 11 11 11 11 6 8 11 11 10 8 7 8 7 7 5 3 3 4 9 9 10 13 1 4 18 20 19 18 19 18 19 21 20 20 16 13 13 14
29 31 16 12 9 13 12 11 11 9 9 8 5 4 4 7 8 8 14 9 12 18 14 9 10 8 11 11 11 9 11 12 10 11 13 11 15 11 14 19 15 12 7 5 10 9 7 9 14 13 10 8 15 11 6 4 10 14 9 9 8 6 6 8 5 8 6 4 5 13 9 2 7 5 16 17 19 18 17 18 17 19 20 20 21 20 18 16
31 26 14 14 10 12 13 13 13 11 8 6 4 6 8 14 3 1 5 9 8 14 19 21 16 13 10 12 12 14 10 8 15 12 13 12 13 12 14 15 20 13 9 9 6 6 16 9 4 16 8 7 13 12 8 8 6 9 10 6 8 15 5 6 4 4 3 1 4 4 5 5 7 7 14 17 18 17 16 16 17 18 20 19 16 18 17 15
21 13 15 10 10 11 10 10 11 10 8 6 6 8 15 4 5 4 5 6 8 5 15 20 19 12 11 8 10 15 17 10 15 13 11 15 12 14 13 11 16 21 12 13 4 8 7 11 8 13 19 14 9 12 12 10 9 5 6 15 16 3 5 2 5 2 3 6 10 2 4 5 3 3 3 10 14 16 17 18 17 14 15 18 16 17 18 16
11 15 12 12 13 16 12 12 6 10 7 8 8 12 6 8 12 14 7 13 16 18 14 10 9 7 6 7 7 14 12 14 11 13 9 11 13 15 15 14 15 20 21 8 8 7 5 5 10 10 17 19 14 10 15 16 8 4 12 8 0 2 2 4 4 4 4 5 5 9 12 3 4 6 6 6 15 15 13 14 17 13 15 19 17 17 16 16
12 11 16 17 18 15 11 8 9 8 7 9 13 16 6 12 6 13 13 18 16 15 12 8 7 12 10 9 9 10 11 12 11 11 11 12 8 15 15 12 17 17 23 20 8 6 8 8 7 15 13 16 17 12 12 14 13 11 3 7 7 5 9 3 1 5 7 10 5 4 7 9 7 5 7 11 12 16 16 13 15 11 17 18 17 18 17 17
10 10 10 13 6 18 12 6 10 9 8 10 11 10 9 14 15 18 17 18 17 16 12 8 7 8 13 13 13 12 10 12 11 12 9 9 12 16 21 12 13 18 20 23 16 6 5 8 6 7 14 12 14 12 13 10 9 13 11 7 8 5 7 8 6 4 1 4 6 7 8 4 7 6 9 11 8 14 17 15 13 13 18 17 17 19 19 18
9 8 8 8 10 21 20 15 6 8 9 15 10 11 7 12 11 12 14 14 13 9 9 12 11 13 16 14 15 11 13 14 12 12 13 7 14 11 17 20 10 16 18 24 17 13 8 4 5 5 9 11 12 11 11 11 13 12 11 13 6 4 3 7 6 9 8 5 4 2 6 6 5 5 8 7 8 9 15 17 16 15 18 19 20 20 19 19
8 6 10 10 13 19 19 12 6 9 10 10 15 14 13 12 11 13 17 17 14 12 14 15 13 13 13 15 19 14 11 15 14 11 11 11 12 7 14 13 15 13 16 20 21 12 9 7 8 4 7 11 9 9 14 14 14 12 13 14 12 9 4 11 11 9 11 6 4 6 11 3 4 8 4 7 9 11 11 15 16 14 17 18 16 22 21 18
9 8 11 18 22 19 13 9 5 6 9 12 11 9 10 11 14 16 17 17 20 15 12 14 17 14 14 14 14 16 11 13 14 16 8 12 10 12 6 20 16 19 12 14 15 15 9 4 7 9 10 8 7 11 17 17 15 14 13 13 13 6 5 4 6 4 6 7 5 3 4 8 6 3 11 12 8 10 12 15 15 15 15 15 13 17 18 20
7 12 17 23 23 16 10 9 8 9 10 11 13 18 17 16 15 14 17 16 16 13 13 14 14 15 14 12 15 15 14 13 15 14 14 11 11 13 8 14 17 19 21 8 15 14 13 7 7 10 5 12 14 8 16 19 17 14 14 13 11 13 11 8 3 4 2 3 7 4 9 7 8 12 6 6 6 7 10 14 18 15 14 16 11 18 21 20
9 12 15 15 13 10 7 7 6 8 10 13 15 16 14 16 16 15 14 13 11 10 13 12 15 14 16 15 14 16 14 12 13 13 13 9 10 14 12 19 13 14 15 8 9 14 10 9 7 4 6 5 11 7 8 16 15 11 9 11 15 12 13 11 7 3 8 8 6 6 10 5 4 6 7 3 5 2 6 14 16 12 11 14 14 13 18 21
9 10 12 12 12 7 9 7 9 9 12 14 15 16 14 13 8 13 12 12 12 10 10 11 12 16 13 15 14 16 17 15 14 16 15 16 13 15 17 14 21 14 11 12 15 11 15 9 13 9 12 13 13 14 10 13 16 9 8 11 16 19 14 11 12 5 5 7 13 6 7 6 6 10 15 13 5 6 3 4 5 12 16 16 15 12 20 19
6 9 7 9 9 8 8 8 11 11 12 13 14 13 12 11 12 13 15 15 12 12 9 13 13 13 14 20 17 15 13 17 15 14 10 12 11 7 15 30 22 18 17 15 18 12 7 8 14 16 12 11 11 6 1 1 9 14 16 15 11 17 18 13 5 6 11 3 6 10 8 3 5 12 17 18 14 5 5 2 4 2 1 9 7 9 17 18
4 6 7 8 10 7 7 10 10 9 8 12 7 7 13 13 12 15 12 9 10 12 14 10 11 14 15 18 16 16 15 21 18 12 17 17 18 15 25 11 15 15 32 23 8 9 4 8 14 18 19 12 6 8 9 9 8 14 15 19 17 11 15 17 13 15 5 1 8 4 4 9 13 7 5 11 13 9 5 7 4 9 6 2 5 8 15 15
5 5 9 6 7 10 13 9 12 14 16 14 11 11 13 13 12 11 13 10 9 10 9 8 11 9 13 14 13 12 19 17 8 15 20 16 20 22 21 19 11 17 26 19 11 7 5 8 11 16 18 21 17 8 9 14 14 10 16 15 19 20 14 15 15 14 8 8 13 6 2 4 7 13 13 8 4 6 8 9 10 10 8 11 6 7 13 16
6 7 9 10 8 8 10 14 18 16 16 13 8 11 13 14 14 11 8 13 13 8 4 10 15 11 14 11 11 11 10 12 12 16 12 19 20 19 15 26 13 18 18 21 11 2 3 4 3 7 13 18 17 21 16 15 13 14 15 17 15 18 23 20 12 9 12 8 9 13 8 8 7 8 8 7 5 5 3 4 5 8 10 10 13 9 14 13
6 5 5 5 5 11 13 12 11 12 12 12 9 8 12 12 15 13 11 8 10 10 4 11 14 14 11 12 8 8 12 14 15 17 18 19 21 10 15 8 14 17 18 14 13 11 11 3 10 4 1 6 19 19 19 22 19 15 9 14 17 17 17 20 18 12 8 8 8 8 11 14 8 6 7 6 4 3 2 1 4 8 7 13 16 11 8 13
6 7 5 6 9 6 8 9 10 9 10 10 8 9 10 14 15 16 15 11 12 13 9 11 12 14 8 8 9 10 12 15 16 17 20 17 15 15 10 9 14 18 22 16 9 15 14 4 5 3 3 3 4 19 23 18 20 19 14 12 16 17 13 12 14 14 12 8 5 6 7 9 6 5 5 5 2 6 5 4 5 4 7 11 13 14 10 8
4 3 3 3 5 8 9 9 10 10 9 7 7 10 8 12 15 14 14 9 10 12 12 8 8 6 8 9 8 10 14 17 17 18 17 16 16 18 18 19 16 16 14 16 13 12 10 4 5 6 4 2 3 5 13 21 15 17 22 19 6 5 10 9 11 16 16 12 10 8 7 5 8 6 2 3 5 2 5 5 2 3 4 9 16 13 18 19
Wind_Direction
355 354 351 349 349 348 346 345 345 345 343 341 338 336 336 335 333 330 330 330 328 326 325 326 325 325 326 327 327 326 325 318 311 293 232 237 230 232 200 188 168 196 174 176 203 170 193 205 210 217 198 205 211 227 181 201 121 77 103 120 178 228 342 275 319 308 319 113 118 196 145 134 135 117 118 127 130 127 147 146 130 133 135 128 132 134 139 135
354 352 352 349 347 347 346 344 343 342 339 335 335 334 332 331 329 327 326 326 325 323 324 324 323 325 325 327 327 325 326 291 282 269 240 250 211 218 187 184 168 182 156 201 205 189 191 203 207 209 213 214 209 226 169 187 155 129 154 116 223 239 215 235 271 283 298 161 187 147 117 183 117 126 145 141 139 144 162 135 138 116 120 127 134 140 142 145
353 351 351 349 347 346 344 340 339 336 334 334 332 331 329 326 327 325 324 323 322 321 320 322 324 324 324 325 324 324 327 302 274 258 261 255 221 207 188 175 171 164 171 190 213 203 198 200 204 202 212 235 207 233 199 172 185 199 126 220 224 217 250 259 277 310 312 301 184 133 161 162 127 149 168 144 147 163 157 135 112 123 133 142 139 148 146 140
352 350 349 349 346 343 339 337 337 333 333 331 329 328 325 324 324 323 321 319 317 317 319 321 323 323 322 321 323 320 292 269 261 252 295 338 178 179 176 172 173 170 190 214 217 223 209 206 203 208 208 217 232 236 215 173 174 181 202 208 226 220 224 233 50 14 306 293 225 194 143 120 176 160 162 144 152 165 124 134 136 142 146 144 149 149 148 141
351 349 348 347 343 340 338 337 334 332 331 330 328 325 322 322 320 317 317 316 316 316 316 318 321 323 322 315 319 318 301 332 280 71 263 132 142 158 170 179 174 178 188 207 236 254 237 219 204 203 218 220 229 233 227 171 186 159 209 212 214 242 199 211 133 182 242 270 247 167 133 145 158 147 146 161 165 164 148 133 137 143 147 149 154 151 151 149
349 348 346 344 341 338 336 333 332 330 328 326 326 324 323 319 316 317 316 314 314 314 313 315 320 324 319 315 307 291 287 306 25 243 158 157 154 165 173 174 176 174 181 207 220 234 246 243 224 209 205 228 219 224 228 168 175 204 214 222 211 221 208 150 170 215 237 281 272 136 144 134 166 191 158 179 172 157 144 137 140 147 152 154 150 152 156 151
348 346 343 342 339 337 335 332 329 327 324 324 324 322 319 316 315 314 313 311 310 310 312 315 321 323 320 308 265 227 242 252 297 205 162 182 171 162 165 159 154 175 181 196 215 225 231 238 231 224 227 218 230 254 256 172 188 191 202 211 207 212 230 171 178 191 240 248 249 214 120 164 134 236 157 188 191 144 133 135 141 145 149 153 151 161 160 156
346 344 342 338 337 335 333 331 328 326 324 322 320 318 317 315 313 312 310 309 307 308 311 314 321 321 327 324 217 234 204 252 243 236 186 176 174 161 140 141 167 177 192 202 200 217 228 231 227 218 238 235 210 225 254 262 196 210 210 201 197 212 227 195 209 178 196 221 226 170 130 176 176 169 146 301 119 122 129 136 141 145 150 154 158 164 158 157
345 342 340 336 335 334 332 330 328 326 323 319 318 317 314 313 309 306 306 305 307 307 307 311 316 313 314 292 275 292 255 235 242 222 176 174 164 139 153 151 186 175 196 209 215 220 217 237 235 215 221 238 254 235 230 236 236 221 204 185 189 199 213 207 186 241 184 206 186 138 210 144 224 99 153 114 122 125 132 138 142 147 151 156 164 166 158 162
342 341 337 335 334 333 331 329 327 324 322 320 318 315 312 309 308 306 306 305 303 303 304 308 308 311 306 267 261 253 254 235 244 204 158 160 160 161 194 184 167 190 196 214 218 221 221 229 233 214 244 255 240 245 268 263 264 259 163 179 183 185 205 191 232 237 184 176 154 186 184 134 210 137 218 122 125 132 135 142 146 148 157 158 164 166 167 166
342 340 336 334 333 331 329 327 325 322 321 320 317 313 311 309 306 305 303 302 300 299 301 301 297 307 261 232 233 246 266 282 356 125 165 170 163 169 195 215 172 187 204 216 219 218 232 243 242 235 227 244 278 275 260 260 292 287 258 187 175 199 189 173 194 243 202 166 153 187 156 159 160 198 197 133 134 132 136 144 152 153 156 162 167 164 170 172
340 337 335 334 332 330 327 325 323 321 320 318 314 312 310 308 305 304 302 299 296 293 296 296 293 268 265 266 230 226 296 324 308 199 203 198 177 185 183 202 174 194 199 223 213 217 230 243 253 253 236 157 258 297 268 273 267 269 289 234 201 203 198 185 196 213 190 190 169 161 132 191 151 222 167 135 138 141 139 145 153 156 157 162 169 162 170 178
339 338 336 334 331 329 326 325 321 321 318 315 312 310 307 305 303 303 301 299 288 287 287 285 273 242 264 259 234 241 262 273 284 288 271 230 242 196 187 194 213 193 205 226 226 211 221 236 253 268 259 268 228 220 306 271 274 286 296 262 271 240 216 203 202 214 199 161 170 137 165 194 173 214 144 142 141 140 139 147 155 158 156 166 168 166 168 181
338 337 336 333 331 328 327 323 322 319 315 313 311 307 303 300 299 297 297 288 284 282 275 266 243 245 230 246 290 242 240 233 248 264 259 266 274 243 186 183 211 244 215 216 231 229 220 218 240 247 273 253 254 287 274 268 259 253 255 254 234 314 289 192 189 191 227 158 161 143 145 194 160 216 149 155 147 142 145 150 155 157 161 166 167 166 171 185
337 335 335 332 330 327 326 323 321 318 315 314 310 306 303 297 294 292 290 287 276 261 255 238 221 221 216 266 245 250 244 247 252 244 246 243 242 254 215 177 190 218 247 250 254 259 267 229 215 235 239 248 265 279 285 300 297 298 311 281 288 230 257 234 191 187 217 153 150 147 130 175 179 198 153 159 155 145 146 151 155 162 161 166 166 168 170 185
336 334 333 332 328 326 324 324 320 319 317 315 313 307 303 298 292 286 281 275 275 263 202 199 202 218 305 289 261 294 236 184 227 231 235 246 241 241 229 207 184 195 217 236 249 266 258 274 233 203 234 228 249 246 281 304 287 274 246 241 239 197 247 274 187 183 189 158 146 157 160 148 185 213 156 159 163 147 150 156 160 167 162 167 165 168 172 179
336 334 332 329 327 324 324 322 321 319 319 317 315 309 303 294 284 277 268 248 231 197 198 216 146 186 274 235 353 329 261 214 210 198 214 217 236 233 234 211 206 201 193 223 220 231 248 246 233 256 203 226 206 224 212 252 266 267 231 232 248 222 207 254 173 172 170 149 159 161 130 168 161 195 161 158 168 151 158 160 162 165 166 166 166 170 171 181
335 334 331 326 325 325 324 322 321 320 320 318 316 305 299 293 287 291 187 177 203 209 224 255 280 259 260 245 274 244 235 250 201 207 197 196 212 218 227 208 195 208 194 206 219 225 205 234 213 228 205 206 207 199 203 211 219 242 252 231 238 256 256 234 175 171 176 158 160 164 133 177 177 169 167 166 170 163 166 159 165 166 165 168 168 171 173 182
333 333 328 326 324 324 324 323 321 321 322 318 310 299 278 286 9 196 152 153 149 127 218 187 185 155 234 138 217 256 267 194 225 188 201 194 182 221 202 214 197 188 199 198 182 216 176 245 203 237 229 200 205 209 206 212 219 233 241 226 217 231 223 242 182 173 176 162 156 169 157 172 165 177 184 180 171 172 168 165 166 166 165 169 169 171 173 184
330 329 331 327 324 324 324 322 319 319 327 326 337 336 330 318 311 101 221 200 231 243 275 276 202 241 280 288 288 274 285 257 212 179 208 182 164 206 228 206 201 186 197 192 189 197 174 201 214 216 217 215 204 217 220 216 235 240 243 253 233 219 237 238 186 166 172 160 175 166 170 158 162 177 189 198 177 174 171 170 167 167 166 172 170 171 176 181
330 332 330 327 325 324 324 323 319 317 323 314 301 315 356 343 349 335 325 269 244 240 243 254 239 233 244 271 277 286 309 317 270 164 216 152 208 160 201 201 211 197 202 191 215 169 212 215 220 219 214 226 220 206 224 232 220 239 254 260 267 263 250 241 178 162 170 165 185 166 175 173 171 175 184 194 173 179 179 174 173 170 167 171 174 170 177 182
332 331 329 328 327 325 324 323 319 316 321 285 278 287 295 300 28 299 334 299 260 246 254 248 250 255 241 244 253 267 288 276 285 200 191 163 186 196 150 195 199 219 180 212 209 200 203 222 218 215 217 218 239 217 212 226 228 230 243 252 271 266 278 286 220 164 167 173 180 174 178 177 175 175 182 189 179 180 182 177 176 175 167 174 177 175 172 175
333 330 330 328 327 325 325 321 319 315 310 307 296 290 280 290 335 334 324 280 282 236 237 239 242 246 246 236 242 242 251 253 256 240 191 182 169 199 160 183 198 212 204 200 214 213 216 217 218 210 212 221 224 238 218 212 231 238 236 241 243 255 262 294 258 174 171 171 162 172 183 171 157 162 180 192 183 189 186 178 178 175 174 173 177 176 171 177
332 331 330 330 328 326 324 321 312 300 332 309 288 267 265 300 344 356 328 284 292 281 215 226 214 225 229 213 206 211 225 239 232 248 196 183 204 168 225 194 194 205 219 203 214 228 230 177 193 226 222 216 224 223 233 210 213 228 241 238 242 248 250 254 263 260 165 166 149 151 158 158 154 166 175 199 214 218 189 181 181 178 179 176 176 178 173 175
329 327 329 328 330 327 326 317 326 359 322 317 290 347 355 347 343 4 325 291 234 266 190 239 205 219 224 203 181 192 212 237 236 233 218 184 194 199 211 221 228 209 214 222 213 223 237 234 190 202 220 221 221 224 219 223 225 221 222 237 251 254 260 259 261 261 138 162 174 139 143 225 194 174 177 186 196 215 223 193 185 184 179 174 177 180 181 177
325 326 328 328 329 336 320 314 33 348 325 284 352 344 348 332 341 337 320 287 285 275 149 231 143 244 153 193 184 203 181 229 221 222 237 191 191 204 177 221 199 223 204 219 226 225 224 221 239 206 205 215 221 225 215 213 234 221 214 216 240 255 263 267 259 246 135 196 232 167 161 256 198 191 185 181 187 202 217 216 208 185 183 178 179 180 181 180
326 324 325 326 330 344 351 322 341 326 330 326 344 331 335 326 330 321 311 233 276 210 184 130 172 35 179 170 170 159 191 236 184 211 224 212 197 175 230 203 193 234 224 200 221 228 202 208 222 239 211 207 215 221 216 211 218 234 213 206 217 234 251 258 270 267 258 197 173 184 165 163 208 214 192 182 186 194 205 220 222 200 183 184 182 181 181 182
322 321 322 325 326 339 272 284 315 307 265 272 309 320 313 309 316 291 162 337 277 124 137 177 255 95 254 148 168 182 197 104 163 200 210 204 216 170 212 213 207 204 217 214 226 194 216 206 211 224 234 215 211 208 212 219 221 224 230 231 208 215 235 249 257 266 246 171 214 189 166 181 204 239 183 181 187 195 205 208 223 210 192 182 183 179 182 183
320 319 319 322 324 310 284 218 273 271 256 303 307 300 300 304 305 340 269 249 305 310 5 168 314 177 187 153 178 202 227 198 193 174 189 202 204 212 193 221 230 214 212 226 244 225 211 235 201 217 231 230 211 195 208 211 226 224 230 236 249 224 219 232 241 242 263 232 217 197 172 185 226 194 150 173 183 194 202 208 212 216 195 185 182 174 179 183
318 318 317 321 323 310 315 286 250 255 276 290 296 313 313 306 271 217 189 256 217 262 183 67 241 187 178 164 189 195 216 229 250 144 174 193 188 215 229 190 228 245 237 216 233 242 253 207 230 213 217 229 218 204 199 211 225 224 218 237 241 250 244 218 226 227 273 260 211 213 193 184 215 202 167 173 193 186 192 200 212 210 211 200 181 179 170 179
319 317 312 318 298 303 307 286 264 253 272 314 320 313 303 265 237 203 228 227 301 251 134 143 195 163 184 185 190 194 210 220 223 196 176 187 185 193 206 194 207 242 248 261 233 226 237 257 239 222 217 209 229 228 200 206 209 213 217 214 244 263 270 260 267 205 222 244 240 194 220 194 217 233 193 185 182 180 179 193 198 208 211 198 191 183 178 171
320 317 310 310 273 265 236 250 275 336 329 314 318 310 313 256 224 214 226 103 256 184 197 194 202 185 192 203 206 179 194 207 227 206 188 183 189 184 198 212 169 199 227 218 238 234 230 227 241 262 216 220 201 234 213 195 209 213 209 207 200 228 208 253 233 232 224 220 219 225 230 230 216 194 188 188 178 185 184 185 191 196 202 206 197 190 183 174
319 316 310 295 268 223 226 239 275 284 303 296 294 307 251 208 241 204 261 271 232 331 89 209 193 200 196 205 217 196 189 208 198 236 193 181 203 200 197 211 181 195 205 209 238 229 240 229 230 233 254 207 224 203 190 201 196 212 210 194 191 201 211 229 236 243 244 233 220 229 211 239 201 234 184 190 194 186 189 190 188 189 194 200 197 193 185 181
318 315 309 278 259 250 249 239 245 249 275 290 278 263 239 234 247 143 218 229 278 313 313 307 323 288 215 207 208 203 193 206 192 217 216 180 197 199 197 203 214 191 227 193 215 210 241 221 218 217 223 191 210 222 182 204 178 209 212 206 202 193 200 212 197 210 217 215 234 218 252 178 192 216 185 191 194 194 189 191 192 193 191 190 189 189 186 182
316 304 278 285 275 251 234 228 238 233 243 268 255 229 213 228 333 250 217 214 236 276 282 294 291 290 265 227 201 206 216 189 204 209 218 201 192 209 187 195 202 224 183 235 201 212 228 245 202 209 236 198 204 200 217 214 242 200 200 209 224 222 172 210 173 208 246 308 266 238 227 159 204 210 190 185 188 192 189 187 189 191 195 192 184 182 181 182
314 306 306 276 279 264 247 226 214 209 221 233 233 222 226 184 212 193 279 298 257 306 336 322 298 265 269 271 198 213 191 245 181 217 215 209 201 203 201 187 197 202 204 206 174 219 207 228 209 193 211 232 209 179 206 209 218 183 178 212 224 171 213 236 288 242 230 232 245 267 260 254 289 248 203 191 186 185 186 192 193 192 184 184 184 181 182 181
320 314 315 305 285 268 258 253 222 184 207 231 228 241 258 267 268 297 311 311 314 321 319 325 299 302 245 246 252 199 194 201 209 195 220 191 211 210 198 209 188 196 217 200 215 243 193 222 205 213 200 215 224 192 200 210 218 136 210 226 22 179 231 177 196 219 241 218 235 216 234 269 186 264 228 196 192 191 184 184 190 186 168 179 179 176 178 184
313 296 282 274 266 275 241 231 218 185 210 223 239 251 298 274 261 269 298 305 316 335 326 298 297 303 291 276 246 245 183 204 191 205 223 191 241 186 207 209 197 200 201 216 243 202 226 280 218 213 210 199 213 215 212 218 202 225 206 129 210 166 232 191 187 215 205 229 246 230 237 225 190 247 185 219 192 189 190 183 184 168 166 168 170 174 181 185
288 291 300 280 343 2 353 208 209 181 210 236 245 273 247 257 276 287 291 294 290 292 288 281 283 287 301 304 308 279 240 210 197 211 215 192 231 174 205 197 201 202 191 203 220 235 194 233 263 242 212 178 196 198 217 192 201 220 246 252 204 192 195 202 205 238 152 236 223 247 240 247 210 203 198 215 184 178 185 184 191 167 170 168 170 178 190 189
325 329 276 272 1 3 344 326 227 203 222 239 246 248 287 283 277 267 265 269 285 282 276 293 282 286 287 293 294 300 300 278 208 216 219 162 219 171 206 187 210 195 196 193 212 205 247 200 257 245 233 178 203 191 199 175 183 198 212 232 220 241 144 189 197 216 200 199 185 188 240 226 242 204 192 210 193 194 174 183 187 176 175 175 177 184 189 187
323 293 279 279 354 355 335 334 275 223 237 249 252 264 271 278 289 280 284 287 286 280 284 284 283 270 286 301 293 299 300 305 299 235 210 212 196 210 194 199 192 216 194 196 202 195 218 215 234 266 256 225 214 178 185 182 189 197 202 217 219 207 207 185 223 201 216 202 198 205 239 279 256 212 211 217 215 196 192 183 187 185 175 185 186 183 185 188
308 287 266 313 328 333 328 312 284 257 248 248 249 249 257 252 254 260 263 267 270 273 278 277 281 287 283 270 277 289 287 288 283 295 218 221 202 223 172 198 186 200 211 199 202 190 205 207 221 234 245 247 235 188 184 182 188 199 194 219 221 202 211 217 215 264 208 228 225 217 281 252 251 252 209 225 214 207 199 179 184 188 187 190 179 182 184 183
295 276 290 299 297 303 296 276 269 269 255 253 257 249 255 261 269 275 282 287 285 285 289 276 270 280 271 278 284 277 277 273 278 275 303 309 263 214 207 204 193 193 204 221 196 191 187 210 205 241 278 272 264 252 186 183 184 200 205 203 210 218 212 230 209 178 198 194 202 191 229 246 202 234 238 226 228 226 191 178 178 182 186 196 190 181 179 183
299 300 300 284 279 274 278 264 269 255 255 259 265 276 274 280 290 298 286 286 280 278 273 279 287 275 284 277 274 277 282 287 272 276 283 290 285 315 254 217 207 208 191 190 223 160 205 191 210 160 229 263 283 278 224 183 186 199 201 194 204 217 212 226 248 142 214 207 192 160 236 241 238 184 280 237 255 212 182 182 167 177 189 195 197 170 178 186
298 278 255 276 293 262 250 249 256 267 273 279 283 279 277 255 258 278 293 301 317 306 328 315 323 339 329 332 329 322 297 272 282 285 283 278 294 292 306 268 216 233 222 182 200 157 203 171 185 200 197 201 212 220 202 192 192 184 210 203 195 207 212 206 230 211 216 229 209 216 238 236 230 193 222 252 240 270 171 188 216 174 182 196 201 160 178 183
302 306 304 309 300 312 289 265 255 261 268 275 275 279 300 313 318 320 328 310 303 312 337 317 311 324 6 352 351 332 326 346 318 299 275 287 290 300 351 341 341 306 264 237 197 176 208 181 190 201 205 209 221 244 284 232 172 199 195 213 208 197 206 215 206 214 217 199 215 229 213 269 247 195 188 230 253 221 218 222 164 230 274 207 180 152 176 178
295 272 303 318 319 309 306 331 326 332 333 346 318 332 308 316 315 305 314 302 309 334 329 322 342 360 351 351 340 329 334 344 333 352 0 340 326 324 331 328 335 325 323 284 188 210 188 204 197 198 207 214 192 219 238 240 234 199 193 196 216 218 199 205 210 228 200 125 261 249 221 224 241 264 270 231 224 211 212 216 169 124 137 112 155 159 166 170
265 267 287 321 306 300 308 313 329 327 319 318 299 299 288 291 298 298 310 289 321 330 321 310 316 344 354 353 344 337 332 326 340 347 343 351 337 340 329 331 329 343 353 304 193 195 141 205 199 198 207 214 218 235 229 238 244 225 198 193 198 214 229 216 216 219 195 210 235 236 174 214 250 246 231 215 205 240 221 198 193 145 150 123 102 136 155 164
263 287 280 292 287 300 299 305 305 303 306 308 306 302 290 284 284 288 295 308 303 290 281 281 296 324 324 357 1 326 327 337 339 338 350 335 336 332 334 332 343 10 351 336 285 177 171 203 182 205 209 203 218 231 234 250 250 244 206 196 198 202 213 231 236 215 202 210 222 242 215 215 219 239 233 230 198 191 197 213 175 154 136 141 138 156 156 160
278 283 306 328 277 290 296 298 298 300 294 305 301 298 289 290 287 287 279 269 288 290 352 295 305 318 344 334 340 323 313 315 329 323 326 332 320 345 320 260 316 332 340 319 317 293 217 216 187 168 187 228 207 215 234 237 245 254 232 204 205 209 210 211 226 241 241 232 226 209 228 242 233 210 255 258 213 189 124 137 199 186 154 143 151 159 170 173
262 290 314 311 296 290 298 308 298 303 295 291 287 302 323 325 312 311 292 296 294 300 304 299 298 302 317 322 315 312 308 314 320 311 308 308 297 303 295 305 325 306 313 316 316 328 285 214 172 140 181 237 248 212 210 231 243 251 258 233 207 207 216 202 210 211 223 228 224 229 221 234 256 218 200 265 136 164 176 162 177 200 151 128 150 146 154 154
293 272 87 280 288 292 294 287 290 287 267 277 315 317 303 312 305 321 311 288 295 300 303 311 330 330 312 302 294 292 301 307 303 302 297 292 284 283 273 277 286 289 288 291 293 287 289 278 172 127 155 242 223 288 217 208 231 249 244 243 247 228 209 215 206 194 203 217 230 215 228 217 208 185 188 259 260 205 175 181 196 213 250 154 154 165 168 171